SCP
0 0 0 0 0 0 0 0 0 0 -0 -0 -0 -0 -0 0 0 0 0 0 0 0 0 0 0 0 0 0 0 0 0 0
0 0 0 0 0 0 0 0 0 0 0 0 0 0 0 0 0 0 0 0 0 0 0 0 0 0 0 0 0 0 0 0
0 0 0 0 0 0 0 0 0 0 0 0 0 0 1 0 0 0 0 0 0 0 0 0 0 0 0 0 0 0 0 0
0 0 0 0 0 0 0 0 0 0 0 0 0 0 0 1 0 0 0 0 0 0 0 0 0 0 0 0 0 0 0 0
0 0 0 0 1 0 1 0 0 1 1 0 0 0 0 0 0 0 0 0 0 0 0 0 0 0 0 0 0 0 0 0
0 0 0 0 0 0 2 0 0 0 1 1 0 0 0 0 0 0 0 0 0 0 0 0 0 0 0 0 0 0 0 0
0 0 0 0 0 0 2 1 0 1 0 1 0 0 0 0 0 0 0 0 0 0 0 0 0 0 0 0 0 0 0 0
0 0 0 0 0 0 0 2 2 1 0 0 0 0 0 0 0 0 0 0 0 0 0 0 0 0 0 0 0 0 0 0
0 0 0 0 0 0 0 0 0 2 1 1 0 0 0 0 0 0 0 0 0 0 0 0 0 0 0 0 0 0 0 0
0 0 0 0 0 0 0 0 0 1 2 2 1 1 1 1 1 1 2 1 1 0 0 0 0 0 1 1 0 1 1 1
0 0 0 0 0 0 0 0 0 0 1 2 2 2 3 1 2 2 2 1 1 1 1 1 1 1 1 1 1 1 2 1
0 0 0 0 0 0 0 0 0 0 0 0 3 3 4 3 3 2 2 1 1 1 2 2 2 1 2 1 1 1 2 3
0 0 0 0 0 0 0 0 0 0 0 0 0 3 4 5 3 5 4 3 3 2 3 3 2 2 2 2 1 2 2 2
0 0 0 0 0 0 0 0 0 0 0 0 0 0 2 2 3 3 2 2 2 3 2 2 3 3 2 2 2 2 2 1
0 0 0 0 0 0 0 0 0 0 0 0 0 0 1 2 3 2 2 3 2 3 3 4 3 3 2 2 2 2 2 1
0 0 0 0 0 0 0 0 0 0 0 0 0 0 0 1 2 2 2 2 2 3 3 3 3 3 2 2 2 2 2 1
0 0 0 0 0 0 0 0 0 0 0 0 0 0 0 1 2 3 2 2 2 3 3 3 3 2 2 2 3 3 2 1
0 0 0 0 0 0 0 0 0 0 0 0 0 0 0 0 1 2 2 2 1 2 2 3 3 3 3 3 4 4 2 1
-0 0 -0 0 0 0 -0 -0 0 0 0 0 0 0 0 0 0 1 1 2 2 1 2 3 3 3 3 3 3 3 1 1
-0 -0 0 0 0 0 -0 -0 0 0 0 0 0 0 0 0 0 0 1 1 1 1 2 2 3 3 3 3 3 1 1 1
Wind_Speed_500mb
28 29 24 54 75 82 88 89 88 85 84 80 77 74 73 67 61 57 53 49 44 42 40 36 35 34 35 35 34 34 35 33
28 22 25 30 59 82 89 90 88 85 84 82 77 75 73 69 63 57 54 50 47 47 43 39 37 36 39 39 38 38 39 39
25 27 23 20 35 64 82 84 89 89 88 83 81 77 72 66 63 57 55 52 49 45 46 42 39 39 40 38 39 41 40 41
29 27 23 22 17 37 60 80 87 89 90 91 83 82 72 68 66 62 56 51 50 45 48 45 41 39 41 37 36 40 42 41
19 25 26 17 24 30 38 61 71 81 84 82 82 85 77 75 68 60 57 54 49 45 49 49 44 43 40 37 35 37 40 37
14 23 27 25 20 35 35 34 50 66 77 88 91 89 83 71 70 60 54 48 49 30 37 41 34 41 43 41 37 35 38 36
17 13 20 30 28 26 26 45 65 61 59 68 93 97 85 76 71 64 41 34 32 35 47 50 40 40 43 46 42 37 40 38
27 25 19 20 22 27 31 32 62 82 74 56 69 94 90 86 75 68 55 34 51 52 74 62 45 54 49 47 46 43 41 39
28 32 30 29 22 21 28 32 41 49 63 75 92 102 97 91 83 74 58 64 85 88 75 45 46 59 49 45 46 45 44 43
26 28 32 36 35 32 26 27 39 46 48 57 73 78 78 88 74 72 74 85 92 79 87 70 76 72 57 48 44 42 45 46
24 28 34 39 41 46 43 30 29 36 44 51 58 63 65 70 82 83 89 91 100 84 84 79 64 59 57 46 44 41 44 46
31 30 34 32 36 43 49 45 38 33 36 48 59 64 73 74 68 87 84 97 99 77 77 81 74 63 57 49 45 43 43 48
20 24 26 28 33 36 41 48 49 42 38 42 52 66 75 76 77 85 88 87 86 98 98 75 63 57 54 50 51 49 47 48
25 28 41 42 39 37 38 43 48 49 48 45 48 63 76 84 88 88 93 96 95 91 75 64 62 54 54 50 52 53 48 44
34 46 47 48 41 42 45 44 46 47 49 53 49 54 70 84 91 94 90 84 79 83 75 65 58 51 47 50 55 51 43 42
40 47 45 42 43 46 48 50 52 49 48 52 54 53 62 75 85 83 85 82 80 82 67 64 55 47 46 51 50 42 39 37
45 49 39 34 45 53 57 58 57 55 53 49 54 55 53 68 73 66 72 76 73 58 58 64 51 46 49 48 46 41 36 36
52 46 37 34 44 54 59 61 62 58 58 58 54 55 54 56 70 72 63 64 53 53 63 57 49 50 48 46 42 37 31 30
47 48 41 39 45 45 58 66 61 54 56 59 57 55 56 53 64 64 51 46 43 51 59 55 52 51 48 47 40 31 32 32
51 53 52 45 44 47 49 60 56 47 49 55 59 57 56 58 63 65 58 53 49 50 53 52 53 50 50 45 40 34 37 40
Wind_Direction_500mb
333 338 262 232 209 204 204 204 206 203 204 205 207 211 210 211 215 219 223 228 231 234 238 242 248 255 259 262 266 268 272 271
335 312 313 274 235 216 209 209 210 212 212 211 213 216 220 220 220 225 229 235 238 242 246 251 256 260 264 268 272 272 275 274
315 334 313 282 258 236 219 215 217 215 217 219 218 221 227 229 233 232 238 241 244 250 255 258 263 269 269 273 276 277 277 276
288 305 320 265 261 258 237 233 224 223 220 220 222 226 228 234 236 237 240 248 253 257 266 264 268 273 274 274 275 276 273 273
276 273 298 313 269 254 245 237 236 237 236 231 228 230 227 235 237 245 247 250 259 264 270 273 275 274 271 270 269 270 271 274
314 273 262 288 292 255 238 236 244 239 238 239 239 233 230 232 240 245 253 263 269 275 293 276 288 278 270 268 266 267 269 269
313 315 266 261 275 272 249 229 247 269 245 250 239 243 239 237 240 241 249 271 259 269 285 269 278 285 275 269 265 265 265 265
309 303 295 270 268 268 263 243 221 233 233 250 249 245 242 242 241 241 233 266 272 281 256 264 277 298 278 273 267 266 264 261
294 290 288 284 270 275 253 245 244 242 239 225 228 248 242 237 240 238 232 240 240 257 255 269 294 278 278 275 263 261 265 262
263 273 282 283 284 281 283 264 251 249 242 235 242 244 245 242 227 219 230 236 244 246 249 261 244 261 273 275 266 264 268 266
278 292 295 300 281 278 281 277 266 259 253 246 247 243 247 240 231 233 230 235 249 256 262 259 263 259 269 277 272 268 270 268
290 294 297 292 288 281 276 277 270 268 259 252 246 250 244 235 236 229 240 246 255 254 261 261 266 256 265 273 274 275 266 261
312 319 320 309 311 298 286 276 269 267 269 261 254 243 247 244 235 235 246 252 253 258 267 261 256 250 260 269 274 277 268 255
338 333 335 329 314 307 301 283 272 268 264 269 264 257 249 244 242 243 249 259 254 253 257 257 247 248 257 268 274 270 260 251
332 328 324 331 328 311 301 295 279 272 269 262 267 262 250 249 248 251 251 252 253 259 259 255 240 244 256 263 270 257 244 245
325 325 316 322 325 321 308 293 283 274 269 264 260 265 254 244 243 245 253 255 258 264 260 242 233 241 250 263 255 239 232 234
329 327 307 304 314 321 315 302 283 273 270 267 257 257 259 247 238 242 252 257 262 256 240 234 232 238 251 251 236 229 225 235
328 327 307 304 316 320 312 299 289 273 265 268 262 255 257 251 240 236 246 256 251 232 230 229 230 244 245 230 220 215 229 223
316 318 311 301 309 315 316 299 291 275 262 263 261 255 252 252 236 227 225 242 242 229 230 227 242 238 227 216 208 221 214 212
311 314 307 301 298 304 310 308 296 286 270 265 258 255 248 248 238 230 229 231 236 232 227 232 235 227 216 207 218 214 212 219
Wind_Speed_850mb
28 29 24 54 75 82 88 89 88 85 84 80 77 74 73 67 61 57 53 49 44 42 40 36 35 34 35 35 34 34 35 33
28 22 25 30 59 82 89 90 88 85 84 82 77 75 73 69 63 57 54 50 47 47 43 39 37 36 39 39 38 38 39 39
25 27 23 20 35 64 82 84 89 89 88 83 81 77 72 66 63 57 55 52 49 45 46 42 39 39 40 38 39 41 40 41
29 27 23 22 17 37 60 80 87 89 90 91 83 82 72 68 66 62 56 51 50 45 48 45 41 39 41 37 36 40 42 41
19 25 26 17 24 30 38 61 71 81 84 82 82 85 77 75 68 60 57 54 49 45 49 49 44 43 40 37 35 37 40 37
14 23 27 25 20 35 35 34 50 66 77 88 91 89 83 71 70 60 54 48 49 30 37 41 34 41 43 41 37 35 38 36
17 13 20 30 28 26 26 45 65 61 59 68 93 97 85 76 71 64 41 34 32 35 47 50 40 40 43 46 42 37 40 38
27 25 19 20 22 27 31 32 62 82 74 56 69 94 90 86 75 68 55 34 51 52 74 62 45 54 49 47 46 43 41 39
28 32 30 29 22 21 28 32 41 49 63 75 92 102 97 91 83 74 58 64 85 88 75 45 46 59 49 45 46 45 44 43
26 28 32 36 35 32 26 27 39 46 48 57 73 78 78 88 74 72 74 85 92 79 87 70 76 72 57 48 44 42 45 46
24 28 34 39 41 46 43 30 29 36 44 51 58 63 65 70 82 83 89 91 100 84 84 79 64 59 57 46 44 41 44 46
31 30 34 32 36 43 49 45 38 33 36 48 59 64 73 74 68 87 84 97 99 77 77 81 74 63 57 49 45 43 43 48
20 24 26 28 33 36 41 48 49 42 38 42 52 66 75 76 77 85 88 87 86 98 98 75 63 57 54 50 51 49 47 48
25 28 41 42 39 37 38 43 48 49 48 45 48 63 76 84 88 88 93 96 95 91 75 64 62 54 54 50 52 53 48 44
34 46 47 48 41 42 45 44 46 47 49 53 49 54 70 84 91 94 90 84 79 83 75 65 58 51 47 50 55 51 43 42
40 47 45 42 43 46 48 50 52 49 48 52 54 53 62 75 85 83 85 82 80 82 67 64 55 47 46 51 50 42 39 37
45 49 39 34 45 53 57 58 57 55 53 49 54 55 53 68 73 66 72 76 73 58 58 64 51 46 49 48 46 41 36 36
52 46 37 34 44 54 59 61 62 58 58 58 54 55 54 56 70 72 63 64 53 53 63 57 49 50 48 46 42 37 31 30
47 48 41 39 45 45 58 66 61 54 56 59 57 55 56 53 64 64 51 46 43 51 59 55 52 51 48 47 40 31 32 32
51 53 52 45 44 47 49 60 56 47 49 55 59 57 56 58 63 65 58 53 49 50 53 52 53 50 50 45 40 34 37 40
Wind_Direction_850mb
333 338 262 232 209 204 204 204 206 203 204 205 207 211 210 211 215 219 223 228 231 234 238 242 248 255 259 262 266 268 272 271
335 312 313 274 235 216 209 209 210 212 212 211 213 216 220 220 220 225 229 235 238 242 246 251 256 260 264 268 272 272 275 274
315 334 313 282 258 236 219 215 217 215 217 219 218 221 227 229 233 232 238 241 244 250 255 258 263 269 269 273 276 277 277 276
288 305 320 265 261 258 237 233 224 223 220 220 222 226 228 234 236 237 240 248 253 257 266 264 268 273 274 274 275 276 273 273
276 273 298 313 269 254 245 237 236 237 236 231 228 230 227 235 237 245 247 250 259 264 270 273 275 274 271 270 269 270 271 274
314 273 262 288 292 255 238 236 244 239 238 239 239 233 230 232 240 245 253 263 269 275 293 276 288 278 270 268 266 267 269 269
313 315 266 261 275 272 249 229 247 269 245 250 239 243 239 237 240 241 249 271 259 269 285 269 278 285 275 269 265 265 265 265
309 303 295 270 268 268 263 243 221 233 233 250 249 245 242 242 241 241 233 266 272 281 256 264 277 298 278 273 267 266 264 261
294 290 288 284 270 275 253 245 244 242 239 225 228 248 242 237 240 238 232 240 240 257 255 269 294 278 278 275 263 261 265 262
263 273 282 283 284 281 283 264 251 249 242 235 242 244 245 242 227 219 230 236 244 246 249 261 244 261 273 275 266 264 268 266
278 292 295 300 281 278 281 277 266 259 253 246 247 243 247 240 231 233 230 235 249 256 262 259 263 259 269 277 272 268 270 268
290 294 297 292 288 281 276 277 270 268 259 252 246 250 244 235 236 229 240 246 255 254 261 261 266 256 265 273 274 275 266 261
312 319 320 309 311 298 286 276 269 267 269 261 254 243 247 244 235 235 246 252 253 258 267 261 256 250 260 269 274 277 268 255
338 333 335 329 314 307 301 283 272 268 264 269 264 257 249 244 242 243 249 259 254 253 257 257 247 248 257 268 274 270 260 251
332 328 324 331 328 311 301 295 279 272 269 262 267 262 250 249 248 251 251 252 253 259 259 255 240 244 256 263 270 257 244 245
325 325 316 322 325 321 308 293 283 274 269 264 260 265 254 244 243 245 253 255 258 264 260 242 233 241 250 263 255 239 232 234
329 327 307 304 314 321 315 302 283 273 270 267 257 257 259 247 238 242 252 257 262 256 240 234 232 238 251 251 236 229 225 235
328 327 307 304 316 320 312 299 289 273 265 268 262 255 257 251 240 236 246 256 251 232 230 229 230 244 245 230 220 215 229 223
316 318 311 301 309 315 316 299 291 275 262 263 261 255 252 252 236 227 225 242 242 229 230 227 242 238 227 216 208 221 214 212
311 314 307 301 298 304 310 308 296 286 270 265 258 255 248 248 238 230 229 231 236 232 227 232 235 227 216 207 218 214 212 219